FW8547 Weather Reports


time (UTC)temp
C
wind
direction
speed
KPH
gust
KPH
rain 1hr
cm
rain 24hr
cm
rain mn
cm
humidity
%
barometer
mb
20260503194638 23 21 6.4 9.7 0.00 0.00 0.00 55 1015.6
20260503194134 23 57 3.2 4.8 0.00 0.00 0.00 57 1015.6
20260503193631 23 12 6.4 8.0 0.00 0.00 0.00 55 1015.8
20260503193126 22 22 6.4 8.0 0.00 0.00 0.00 57 1015.8
20260503192622 23 337 9.7 11.3 0.00 0.00 0.00 55 1016.0
20260503192118 23 236 4.8 4.8 0.00 0.00 0.00 54 1016.1
20260503191615 23 355 4.8 9.7 0.00 0.00 0.00 55 1016.2
20260503191112 22 355 11.3 12.9 0.00 0.00 0.00 56 1016.0
20260503190609 22 40 4.8 4.8 0.00 0.00 0.00 54 1016.2
20260503190106 22 316 6.4 8.0 0.00 0.00 0.00 56 1016.2
20260503185603 22 0 9.7 9.7 0.00 0.00 0.00 58 1016.1
20260503185102 22 16 6.4 8.0 0.00 0.00 0.00 58 1016.3
20260503184558 22 290 4.8 4.8 0.00 0.00 0.00 58 1016.5
20260503184055 21 332 8.0 9.7 0.00 0.00 0.00 58 1016.6
20260503183551 21 339 6.4 8.0 0.00 0.00 0.00 60 1016.5
20260503183049 21 252 8.0 9.7 0.00 0.00 0.00 61 1016.5
20260503182547 21 312 4.8 4.8 0.00 0.00 0.00 61 1016.6
20260503182045 21 321 6.4 8.0 0.00 0.00 0.00 61 1016.7
20260503181541 21 179 1.6 3.2 0.00 0.00 0.00 62 1016.6
20260503181038 21 42 0.0 1.6 0.00 0.00 0.00 60 1016.5
20260503180535 21 70 0.0 1.6 0.00 0.00 0.00 62 1016.9
20260503180032 21 14 8.0 9.7 0.00 0.00 0.00 63 1016.6
20260503175530 20 64 3.2 4.8 0.00 0.00 0.00 65 1016.9
20260503175027 20 356 8.0 9.7 0.00 0.00 0.00 63 1017.1
20260503174524 20 285 4.8 4.8 0.00 0.00 0.00 63 1017.0
20260503174020 20 338 3.2 3.2 0.00 0.00 0.00 64 1016.8
20260503173515 19 350 4.8 9.7 0.00 0.00 0.00 67 1016.8
20260503173012 19 342 6.4 8.0 0.00 0.00 0.00 68 1017.1
20260503172510 19 302 4.8 8.0 0.00 0.00 0.00 66 1017.2
20260503172006 18 274 6.4 8.0 0.00 0.00 0.00 68 1017.2
20260503171503 18 350 4.8 8.0 0.00 0.00 0.00 69 1017.2
20260503171000 18 345 8.0 8.0 0.00 0.00 0.00 70 1017.0
20260503170456 18 344 3.2 4.8 0.00 0.00 0.00 69 1017.7
20260503150849 13 344 3.2 3.2 0.00 0.00 0.00 90 1017.4
20260503150345 13 4 3.2 3.2 0.00 0.00 0.00 92 1017.6
20260503140309 10 62 0.0 0.0 0.00 0.00 0.00 99 1017.1
20260503131239 10 51 0.0 0.0 0.00 0.00 0.00 99 1017.2
20260503130736 10 51 0.0 0.0 0.00 0.00 0.00 99 1017.2
20260503130233 10 45 0.0 0.0 0.00 0.00 0.00 99 1017.4
20260503120159 10 65 0.0 0.0 0.00 0.00 0.00 99 1017.2
20260503110627 10 63 0.0 0.0 0.00 0.00 0.00 99 1017.5
20260503110124 10 68 0.0 0.0 0.00 0.00 0.00 99 1017.7
20260503081440 12 11 0.0 0.0 0.00 0.00 0.00 92 1017.5
20260503080937 12 16 0.0 0.0 0.00 0.00 0.00 92 1017.7
20260503080433 12 16 0.0 0.0 0.00 0.00 0.00 92 1017.6
20260503072910 12 71 1.6 1.6 0.00 0.00 0.00 87 1017.6
20260503072407 12 66 1.6 1.6 0.00 0.00 0.00 87 1017.5
20260503071904 12 66 1.6 1.6 0.00 0.00 0.00 86 1017.5
20260503071401 12 66 1.6 1.6 0.00 0.00 0.00 86 1017.4
20260503070856 12 66 1.6 1.6 0.00 0.00 0.00 86 1017.6
20260503070355 12 66 1.6 1.6 0.00 0.00 0.00 86 1017.7
20260503060320 13 48 0.0 1.6 0.00 0.00 0.00 80 1017.4
20260503054808 13 65 1.6 1.6 0.00 0.00 0.00 85 1017.4
20260503054304 13 73 1.6 1.6 0.00 0.00 0.00 85 1017.6
20260503053802 13 64 0.0 0.0 0.00 0.00 0.00 84 1017.5
20260503053300 13 61 0.0 0.0 0.00 0.00 0.00 84 1017.5
20260503052756 14 65 0.0 0.0 0.00 0.00 0.00 84 1017.5
20260503052253 14 54 1.6 1.6 0.00 0.00 0.00 83 1017.5
20260503051748 14 61 1.6 1.6 0.00 0.00 0.00 80 1017.6
20260503051246 14 58 0.0 1.6 0.00 0.00 0.00 79 1017.5
20260503050742 15 58 0.0 0.0 0.00 0.00 0.00 80 1017.5
20260503050239 15 59 0.0 1.6 0.00 0.00 0.00 78 1017.5
20260503045736 16 51 1.6 1.6 0.00 0.00 0.00 74 1017.2
20260503045234 16 340 0.0 0.0 0.00 0.00 0.00 70 1017.2
20260503044730 15 20 0.0 0.0 0.00 0.00 0.00 73 1017.2
20260503044228 15 76 1.6 1.6 0.00 0.00 0.00 75 1017.4
20260503043724 15 76 0.0 0.0 0.00 0.00 0.00 76 1017.2
20260503043222 16 76 1.6 1.6 0.00 0.00 0.00 76 1017.1
20260503042717 16 29 0.0 1.6 0.00 0.00 0.00 70 1017.0
20260503042214 15 347 1.6 1.6 0.00 0.00 0.00 72 1016.9
20260503041710 15 34 0.0 0.0 0.00 0.00 0.00 78 1016.9
20260503041208 15 50 0.0 1.6 0.00 0.00 0.00 80 1016.8
20260503040705 16 76 0.0 0.0 0.00 0.00 0.00 79 1016.9
20260503040203 16 44 0.0 0.0 0.00 0.00 0.00 75 1016.7
20260503035659 16 61 1.6 1.6 0.00 0.00 0.00 76 1016.7
20260503035157 17 101 1.6 1.6 0.00 0.00 0.00 75 1016.6
20260503034654 18 126 3.2 3.2 0.00 0.00 0.00 64 1016.4
20260503034151 18 334 3.2 3.2 0.00 0.00 0.00 62 1016.5
20260503033649 18 338 1.6 1.6 0.00 0.00 0.00 65 1016.5
20260503033146 18 342 1.6 1.6 0.00 0.00 0.00 66 1016.4
20260503032644 18 353 0.0 1.6 0.00 0.00 0.00 68 1016.4
20260503032143 18 5 1.6 1.6 0.00 0.00 0.00 69 1016.1
20260503031639 18 22 0.0 0.0 0.00 0.00 0.00 66 1016.2
20260503031137 19 52 0.0 0.0 0.00 0.00 0.00 63 1016.0
20260503030633 20 21 0.0 0.0 0.00 0.00 0.00 62 1016.1
20260503030130 20 326 3.2 3.2 0.00 0.00 0.00 63 1016.2
20260503025626 20 349 1.6 1.6 0.00 0.00 0.00 62 1016.1
20260503025125 20 332 8.0 9.7 0.00 0.00 0.00 61 1016.0
20260503024621 20 7 3.2 3.2 0.00 0.00 0.00 61 1016.0
20260503024118 20 344 0.0 0.0 0.00 0.00 0.00 61 1016.0
20260503023615 20 339 8.0 9.7 0.00 0.00 0.00 61 1016.1
20260503023112 20 61 0.0 0.0 0.00 0.00 0.00 62 1015.9
20260503022607 20 49 1.6 3.2 0.00 0.00 0.00 63 1016.1
20260503022102 20 12 6.4 8.0 0.00 0.00 0.00 62 1016.1
20260503021600 21 2 3.2 3.2 0.00 0.00 0.00 61 1015.8
20260503021056 21 99 0.0 1.6 0.00 0.00 0.00 63 1015.7
20260503020553 21 334 3.2 4.8 0.00 0.00 0.00 61 1016.0
20260503020050 21 327 9.7 14.5 0.00 0.00 0.00 61 1015.9
20260503015547 21 334 3.2 3.2 0.00 0.00 0.00 61 1015.9
20260503015045 21 342 8.0 11.3 0.00 0.00 0.00 61 1016.1
20260503014540 21 278 3.2 4.8 0.00 0.00 0.00 61 1015.9
20260503014038 21 354 8.0 9.7 0.00 0.00 0.00 61 1015.7
20260503013535 21 34 11.3 14.5 0.00 0.00 0.00 61 1015.9
20260503013033 21 23 8.0 11.3 0.00 0.00 0.00 62 1015.8
20260503012530 21 297 1.6 3.2 0.00 0.00 0.00 62 1015.9
20260503012026 22 259 6.4 8.0 0.00 0.00 0.00 62 1016.0
20260503011523 22 19 3.2 3.2 0.00 0.00 0.00 63 1015.9
20260503011021 22 21 8.0 9.7 0.00 0.00 0.00 62 1015.8
20260503010516 22 57 3.2 3.2 0.00 0.00 0.00 62 1015.9
20260503010015 22 330 12.9 14.5 0.00 0.00 0.00 61 1015.9
20260503005511 22 31 0.0 1.6 0.00 0.00 0.00 62 1015.8
20260503005009 22 324 8.0 9.7 0.00 0.00 0.00 63 1016.2
20260503004504 22 356 12.9 16.1 0.00 0.00 0.00 63 1015.9
20260503004003 22 302 8.0 11.3 0.00 0.00 0.00 63 1016.0
20260503003459 22 326 8.0 9.7 0.00 0.00 0.00 62 1016.2
20260503002956 22 333 4.8 4.8 0.00 0.00 0.00 62 1016.2
20260503002453 22 288 8.0 9.7 0.00 0.00 0.00 63 1015.9
20260503001949 22 26 4.8 8.0 0.00 0.00 0.00 64 1016.1
20260503001446 22 37 1.6 3.2 0.00 0.00 0.00 65 1016.1
20260503000944 22 303 8.0 11.3 0.00 0.00 0.00 64 1015.9
20260503000441 22 317 11.3 14.5 0.00 0.00 0.00 63 1016.0
20260502235938 22 325 8.0 12.9 0.00 0.00 0.00 64 1016.2
20260502235435 22 272 16.1 20.9 0.00 0.00 0.00 63 1016.2
20260502234932 22 282 8.0 9.7 0.00 0.00 0.00 63 1016.4
20260502234429 22 61 1.6 3.2 0.00 0.00 0.00 63 1016.4
20260502233926 22 8 6.4 8.0 0.00 0.00 0.00 62 1016.4
20260502233421 22 292 3.2 4.8 0.00 0.00 0.00 63 1016.6
20260502232918 22 14 8.0 8.0 0.00 0.00 0.00 61 1016.6
20260502232414 22 268 8.0 11.3 0.00 0.00 0.00 62 1016.4
20260502231912 22 304 6.4 8.0 0.00 0.00 0.00 62 1016.7
20260502231409 22 336 3.2 3.2 0.00 0.00 0.00 62 1016.9
20260502230907 22 268 4.8 4.8 0.00 0.00 0.00 63 1016.9
20260502230405 22 40 1.6 1.6 0.00 0.00 0.00 63 1017.0
20260502225902 21 287 8.0 11.3 0.00 0.00 0.00 65 1017.0
20260502225358 21 298 4.8 8.0 0.00 0.00 0.00 65 1017.0
20260502224855 21 0 11.3 14.5 0.00 0.00 0.00 64 1017.1
20260502224351 21 317 8.0 9.7 0.00 0.00 0.00 64 1017.4
20260502223849 21 46 0.0 1.6 0.00 0.00 0.00 64 1017.4
20260502223347 21 341 14.5 20.9 0.00 0.00 0.00 66 1017.4
20260502222844 21 347 8.0 9.7 0.00 0.00 0.00 66 1017.5
20260502222342 21 295 9.7 12.9 0.00 0.00 0.00 66 1017.6
20260502221837 21 321 8.0 11.3 0.00 0.00 0.00 66 1017.6
20260502221334 21 357 8.0 14.5 0.00 0.00 0.00 67 1017.7
20260502220831 21 265 8.0 11.3 0.00 0.00 0.00 67 1017.7
20260502220327 21 267 6.4 8.0 0.00 0.00 0.00 68 1017.7
20260502215823 21 281 8.0 12.9 0.00 0.00 0.00 69 1017.7
20260502215321 21 244 4.8 9.7 0.00 0.00 0.00 69 1017.7
20260502214818 21 298 4.8 8.0 0.00 0.00 0.00 69 1017.9
20260502214315 20 305 11.3 12.9 0.00 0.00 0.00 69 1017.9
20260502213812 21 23 9.7 11.3 0.00 0.00 0.00 68 1017.9
20260502213309 20 309 8.0 9.7 0.00 0.00 0.00 70 1017.8
20260502212808 20 276 9.7 12.9 0.00 0.00 0.00 72 1018.1
20260502212306 20 6 4.8 8.0 0.00 0.00 0.00 71 1018.2
20260502211802 20 153 1.6 3.2 0.00 0.00 0.00 72 1018.2
20260502211258 19 345 8.0 11.3 0.00 0.00 0.00 72 1018.0
20260502210755 20 21 9.7 16.1 0.00 0.00 0.00 71 1018.3
20260502210253 20 272 9.7 16.1 0.00 0.00 0.00 68 1018.3
20260502205750 20 325 4.8 4.8 0.00 0.00 0.00 68 1018.1
20260502205246 20 350 6.4 8.0 0.00 0.00 0.00 70 1018.4
20260502204743 19 347 3.2 4.8 0.00 0.00 0.00 70 1018.4
20260502204240 18 354 6.4 11.3 0.00 0.00 0.00 70 1018.5
20260502203738 18 289 8.0 9.7 0.00 0.00 0.00 70 1018.5
20260502203236 19 22 11.3 14.5 0.00 0.00 0.00 70 1018.6
20260502202729 19 19 11.3 12.9 0.00 0.00 0.00 71 1018.4
20260502202228 19 19 8.0 8.0 0.00 0.00 0.00 70 1018.6
20260502201725 19 309 4.8 8.0 0.00 0.00 0.00 70 1018.7
20260502201222 18 2 9.7 11.3 0.00 0.00 0.00 73 1019.0
20260502200718 18 339 11.3 11.3 0.00 0.00 0.00 74 1018.8
20260502200214 18 43 8.0 9.7 0.00 0.00 0.00 71 1019.0
20260502195713 18 253 4.8 4.8 0.00 0.00 0.00 73 1018.9
20260502195209 18 7 6.4 8.0 0.00 0.00 0.00 71 1018.9